Pittsfield, MA

11:55 AM EDT on June 27, 2017 (GMT -0400)
Pittsfield Municipal

Weather History for KPSF - May, 2013

Change the Weather History Date:

Friday, May 3, 2013

  Actual Average Record
Temperature  
Mean Temperature 56 °F 51 °F  
Max Temperature 66 °F 62 °F 87 °F (1930)
Min Temperature 45 °F 40 °F 24 °F (1966)
Degree Days  
Heating Degree Days 9 14  
Month to date heating degree days 26 44  
Since 1 July heating degree days 6662 7079  
Cooling Degree Days 0 0  
Month to date cooling degree days 0 0  
Year to date cooling degree days 0 2  
Growing Degree Days 6 (Base 50)    
Moisture  
Dew Point 33 °F    
Average Humidity 46    
Maximum Humidity 63    
Minimum Humidity 29    
Precipitation  
Precipitation T in 0.11 in 0.73 in (1943)
Month to date precipitation T 0.32  
Year to date precipitation 7.89 13.15  
Sea Level Pressure  
Sea Level Pressure 30.36 in    
Wind  
Wind Speed 7 mph (East)    
Max Wind Speed 16 mph    
Max Gust Speed 22 mph    
Visibility 10 miles    
Events      
T = Trace of Precipitation, MM = Missing Value Source: NWS Daily Summary

Daily Weather History Graph

Daily Weather History Graph

Search for Another Location

Airport or City:

Trip Planner

Search our weather history database for the weather conditions in past years. The results will help you decide how hot, cold, wet, or windy it might be!

Date:

Astronomy

May. 03, 2013 Rise Set
Actual Time 5:45 AM EDT 7:55 PM EDT
Civil Twilight 5:14 AM EDT 8:26 PM EDT
Nautical Twilight 4:36 AM EDT 9:04 PM EDT
Astronomical Twilight 3:54 AM EDT 9:46 PM EDT
Moon 2:16 AM EDT (5/3) 1:39 PM EDT (5/3)
Length of Visible Light 15h 12m
Length of Day
14h 10m
Last Quarter, 37% of the Moon is Illuminated
May 3
Last Quarter
May 9
New
May 18
First Quarter
May 25
Full
May 31
Last Quarter

Hourly Weather History & Observations

Time (EDT) Temp. Windchill Dew Point Humidity Pressure Visibility Wind Dir Wind Speed Gust Speed Precip Events Conditions
12:54 AM 52.0 °F - 30.9 °F 45% 30.37 in 10.0 mi East 9.2 mph - N/A   Overcast
1:54 AM 50.0 °F - 28.0 °F 43% 30.38 in 10.0 mi ESE 6.9 mph - 0.00 in   Overcast
2:54 AM 48.9 °F - 30.0 °F 48% 30.38 in 10.0 mi ESE 10.4 mph - N/A   Overcast
4:54 AM 46.9 °F - 30.9 °F 54% 30.40 in 10.0 mi Variable 5.8 mph - N/A   Mostly Cloudy
5:54 AM 46.0 °F 43.9 °F 32.0 °F 58% 30.41 in 10.0 mi Variable 4.6 mph - N/A   Overcast
6:54 AM 46.0 °F 44.8 °F 33.1 °F 61% 30.42 in 10.0 mi ENE 3.5 mph - N/A   Clear
7:54 AM 48.0 °F - 32.0 °F 54% 30.43 in 10.0 mi ENE 10.4 mph - N/A   Clear
8:54 AM 52.0 °F - 32.0 °F 47% 30.43 in 10.0 mi East 9.2 mph - N/A   Clear
9:54 AM 54.0 °F - 30.0 °F 40% 30.42 in 10.0 mi East 8.1 mph 16.1 mph N/A   Clear
10:54 AM 57.0 °F - 33.1 °F 40% 30.41 in 10.0 mi ENE 8.1 mph - N/A   Clear
11:54 AM 59.0 °F - 33.1 °F 38% 30.39 in 10.0 mi East 8.1 mph - N/A   Clear
12:54 PM 62.1 °F - 32.0 °F 32% 30.36 in 10.0 mi NE 9.2 mph - N/A   Clear
1:54 PM 63.0 °F - 30.0 °F 29% 30.35 in 10.0 mi ESE 10.4 mph - N/A   Clear
2:54 PM 64.9 °F - 33.1 °F 31% 30.33 in 10.0 mi ENE 9.2 mph - N/A   Clear
3:54 PM 66.0 °F - 33.1 °F 29% 30.31 in 10.0 mi Variable 5.8 mph - N/A   Clear
4:54 PM 64.9 °F - 32.0 °F 29% 30.30 in 10.0 mi East 6.9 mph - N/A   Clear
5:54 PM 64.9 °F - 33.1 °F 31% 30.30 in 10.0 mi Variable 5.8 mph - N/A   Clear
6:54 PM 63.0 °F - 35.1 °F 35% 30.30 in 10.0 mi ESE 6.9 mph - N/A   Clear
7:54 PM 59.0 °F - 37.9 °F 46% 30.31 in 10.0 mi ESE 5.8 mph - N/A   Clear
8:54 PM 55.9 °F - 39.0 °F 53% 30.33 in 10.0 mi ESE 3.5 mph - N/A   Clear
9:54 PM 53.1 °F - 39.9 °F 61% 30.34 in 10.0 mi ESE 4.6 mph - N/A   Clear
10:54 PM 52.0 °F - 39.9 °F 63% 30.33 in 10.0 mi Variable 3.5 mph - N/A   Clear
11:54 PM 51.1 °F - 39.9 °F 66% 30.34 in 10.0 mi Calm Calm - N/A   Clear